When you browse on this site, cookies collect data to enhance your experience and personalize the content and advertising you see.
Visit our Privacy Policy to learn more. By continuing to use the site, you agree to this use of cookies and data.
  • In Netherlands
  • List of Countries
  • For 7 days
  • Water Temperature
  • Satellite Maps
  • Weather Map
  • Weather Widgets
  • user-avatar
    Login

    Hourly Weather Oktyabrskoe

    Today, 24 April, Wednesday

    Time Temperature Precipitation Wind Pressure Humidity
    00:00 +3°C° 0 mm 2 mps 711 mmHg 37%
    01:00 +3°C° 0 mm 2 mps 711 mmHg 38%
    02:00 +3°C° 0 mm 2 mps 711 mmHg 38%
    03:00 +3°C° 0 mm 2 mps 711 mmHg 39%
    04:00 +3°C° 0 mm 2 mps 711 mmHg 40%
    05:00 +4°C° 0 mm 2 mps 711 mmHg 41%
    06:00 +4°C° 0 mm 2 mps 711 mmHg 42%
    07:00 +6°C° 0 mm 2 mps 711 mmHg 41%
    08:00 +8°C° 0 mm 3 mps 711 mmHg 41%
    09:00 +10°C° 0 mm 3 mps 711 mmHg 40%
    10:00 +11°C° 0 mm 3 mps 711 mmHg 40%
    11:00 +12°C° 0 mm 3 mps 711 mmHg 39%
    12:00 +13°C° 0 mm 3 mps 711 mmHg 39%
    13:00 +13°C° 0 mm 3 mps 710 mmHg 39%
    14:00 +13°C° 0 mm 3 mps 710 mmHg 40%
    15:00 +14°C° 0 mm 2 mps 710 mmHg 40%
    16:00 +13°C° 0 mm 2 mps 710 mmHg 45%
    17:00 +12°C° 0 mm 2 mps 710 mmHg 50%
    18:00 +10°C° 0 mm 2 mps 710 mmHg 55%
    19:00 +9°C° 0 mm 2 mps 710 mmHg 54%
    20:00 +8°C° 0 mm 2 mps 710 mmHg 53%
    21:00 +7°C° 0 mm 3 mps 710 mmHg 51%
    22:00 +7°C° 0 mm 3 mps 711 mmHg 55%
    23:00 +7°C° 0 mm 3 mps 711 mmHg 58%

    Tomorrow, 25 April, Thursday

    Time Temperature Precipitation Wind Pressure Humidity
    00:00 +7°C° 0 mm 3 mps 711 mmHg 62%
    01:00 +7°C° 0 mm 3 mps 711 mmHg 62%
    02:00 +5°C° 0 mm 3 mps 711 mmHg 62%
    03:00 +5°C° 0 mm 3 mps 711 mmHg 62%
    04:00 +5°C° 0.2 mm 3 mps 711 mmHg 62%
    05:00 +5°C° 0.2 mm 3 mps 711 mmHg 62%
    06:00 +7°C° 0.2 mm 2 mps 711 mmHg 62%
    07:00 +7°C° 0.6 mm 2 mps 711 mmHg 64%
    08:00 +7°C° 0.6 mm 2 mps 711 mmHg 66%
    09:00 +8°C° 0.6 mm 2 mps 710 mmHg 68%
    10:00 +9°C° 0.3 mm 2 mps 710 mmHg 66%
    11:00 +12°C° 0.3 mm 2 mps 710 mmHg 64%
    12:00 +13°C° 0.3 mm 2 mps 710 mmHg 62%
    13:00 +14°C° 0 mm 2 mps 710 mmHg 57%
    14:00 +15°C° 0 mm 1 mps 710 mmHg 52%
    15:00 +16°C° 0 mm 1 mps 710 mmHg 47%
    16:00 +15°C° 0 mm 1 mps 710 mmHg 51%
    17:00 +14°C° 0 mm 1 mps 710 mmHg 54%
    18:00 +12°C° 0 mm 0 mps 710 mmHg 58%
    19:00 +12°C° 0 mm 1 mps 710 mmHg 58%
    20:00 +10°C° 0 mm 1 mps 710 mmHg 58%
    21:00 +8°C° 0 mm 2 mps 710 mmHg 58%
    22:00 +8°C° 0 mm 2 mps 710 mmHg 55%
    23:00 +7°C° 0 mm 2 mps 710 mmHg 53%

    Day after tomorrow, 26 April, Friday

    Time Temperature Precipitation Wind Pressure Humidity
    00:00 +7°C° 0 mm 2 mps 710 mmHg 51%
    01:00 +7°C° 0 mm 2 mps 710 mmHg 51%
    02:00 +6°C° 0 mm 2 mps 710 mmHg 51%
    03:00 +6°C° 0 mm 2 mps 710 mmHg 52%
    04:00 +7°C° 0 mm 2 mps 710 mmHg 53%
    05:00 +7°C° 0 mm 2 mps 710 mmHg 55%
    06:00 +7°C° 0 mm 2 mps 710 mmHg 56%
    07:00 +11°C° 0 mm 1 mps 710 mmHg 52%
    08:00 +13°C° 0 mm 1 mps 710 mmHg 48%
    09:00 +16°C° 0 mm 1 mps 710 mmHg 43%
    10:00 +16°C° 0 mm 1 mps 709 mmHg 43%
    11:00 +17°C° 0 mm 2 mps 709 mmHg 43%
    12:00 +18°C° 0 mm 2 mps 709 mmHg 43%
    13:00 +18°C° 0 mm 2 mps 709 mmHg 44%
    14:00 +18°C° 0 mm 2 mps 708 mmHg 44%
    15:00 +18°C° 0 mm 2 mps 708 mmHg 45%
    16:00 +17°C° 0 mm 2 mps 708 mmHg 50%
    17:00 +16°C° 0 mm 2 mps 708 mmHg 55%
    18:00 +16°C° 0 mm 2 mps 708 mmHg 60%
    19:00 +14°C° 0 mm 2 mps 708 mmHg 63%
    20:00 +13°C° 0 mm 2 mps 708 mmHg 67%
    21:00 +10°C° 0 mm 2 mps 708 mmHg 70%
    22:00 +11°C° 0 mm 1 mps 708 mmHg 70%
    23:00 +11°C° 0 mm 1 mps 708 mmHg 70%

    27 April, Saturday

    Time Temperature Precipitation Wind Pressure Humidity
    00:00 +10°C° 0 mm 1 mps 708 mmHg 69%
    01:00 +10°C° 0 mm 1 mps 708 mmHg 69%
    02:00 +10°C° 0 mm 1 mps 707 mmHg 69%
    03:00 +10°C° 0 mm 1 mps 707 mmHg 68%
    04:00 +10°C° 0 mm 1 mps 707 mmHg 68%
    05:00 +10°C° 0 mm 1 mps 707 mmHg 67%
    06:00 +10°C° 0 mm 1 mps 707 mmHg 66%
    07:00 +13°C° 0 mm 1 mps 707 mmHg 61%
    08:00 +15°C° 0 mm 1 mps 707 mmHg 55%
    09:00 +18°C° 0 mm 1 mps 707 mmHg 50%
    10:00 +18°C° 0 mm 2 mps 707 mmHg 48%
    11:00 +19°C° 0 mm 2 mps 707 mmHg 46%
    12:00 +20°C° 0 mm 2 mps 706 mmHg 44%
    13:00 +20°C° 0 mm 3 mps 706 mmHg 45%
    14:00 +20°C° 0 mm 3 mps 705 mmHg 46%
    15:00 +20°C° 0 mm 3 mps 705 mmHg 46%
    16:00 +19°C° 0 mm 3 mps 705 mmHg 51%
    17:00 +18°C° 0 mm 3 mps 705 mmHg 55%
    18:00 +17°C° 0 mm 2 mps 705 mmHg 60%
    19:00 +15°C° 0 mm 2 mps 705 mmHg 61%
    20:00 +14°C° 0 mm 2 mps 705 mmHg 63%
    21:00 +12°C° 0 mm 2 mps 705 mmHg 64%
    22:00 +12°C° 0 mm 2 mps 705 mmHg 62%
    23:00 +12°C° 0 mm 2 mps 705 mmHg 60%

    28 April, Sunday

    Time Temperature Precipitation Wind Pressure Humidity
    00:00 +10°C° 0 mm 2 mps 705 mmHg 57%
    01:00 +10°C° 0 mm 2 mps 704 mmHg 57%
    02:00 +10°C° 0 mm 2 mps 704 mmHg 56%
    03:00 +9°C° 0 mm 2 mps 704 mmHg 56%
    04:00 +10°C° 0 mm 2 mps 704 mmHg 56%
    05:00 +10°C° 0 mm 2 mps 704 mmHg 57%
    06:00 +10°C° 0 mm 2 mps 704 mmHg 58%
    07:00 +13°C° 0 mm 1 mps 704 mmHg 53%
    08:00 +16°C° 0 mm 1 mps 704 mmHg 48%
    09:00 +19°C° 0 mm 1 mps 704 mmHg 43%
    10:00 +20°C° 0 mm 1 mps 703 mmHg 41%
    11:00 +20°C° 0 mm 2 mps 703 mmHg 40%
    12:00 +21°C° 0 mm 2 mps 703 mmHg 38%
    13:00 +21°C° 0.1 mm 2 mps 703 mmHg 40%
    14:00 +21°C° 0.1 mm 2 mps 703 mmHg 41%
    15:00 +22°C° 0.1 mm 1 mps 702 mmHg 43%
    16:00 +21°C° 0.1 mm 1 mps 703 mmHg 49%
    17:00 +20°C° 0.1 mm 1 mps 703 mmHg 54%
    18:00 +19°C° 0.1 mm 1 mps 703 mmHg 60%
    19:00 +16°C° 0.2 mm 1 mps 703 mmHg 64%
    20:00 +15°C° 0.2 mm 1 mps 703 mmHg 67%
    21:00 +13°C° 0.2 mm 1 mps 703 mmHg 71%
    22:00 +13°C° 0 mm 1 mps 703 mmHg 70%
    23:00 +13°C° 0 mm 1 mps 703 mmHg 68%

    29 April, Monday

    Time Temperature Precipitation Wind Pressure Humidity
    00:00 +12°C° 0 mm 2 mps 703 mmHg 67%
    01:00 +12°C° 0 mm 2 mps 703 mmHg 66%
    02:00 +12°C° 0 mm 2 mps 703 mmHg 64%
    03:00 +12°C° 0 mm 2 mps 703 mmHg 63%
    04:00 +12°C° 0 mm 2 mps 703 mmHg 63%
    05:00 +12°C° 0 mm 1 mps 703 mmHg 62%
    06:00 +12°C° 0 mm 1 mps 703 mmHg 61%
    07:00 +15°C° 0 mm 1 mps 704 mmHg 56%
    08:00 +18°C° 0 mm 1 mps 704 mmHg 51%
    09:00 +21°C° 0 mm 1 mps 704 mmHg 46%
    10:00 +22°C° 0 mm 1 mps 704 mmHg 44%
    11:00 +22°C° 0 mm 1 mps 704 mmHg 41%
    12:00 +23°C° 0 mm 1 mps 704 mmHg 39%
    13:00 +23°C° 0.1 mm 1 mps 703 mmHg 39%
    14:00 +23°C° 0.1 mm 1 mps 703 mmHg 40%
    15:00 +23°C° 0.1 mm 2 mps 703 mmHg 40%
    16:00 +22°C° 0.1 mm 1 mps 703 mmHg 46%
    17:00 +21°C° 0.1 mm 1 mps 703 mmHg 52%
    18:00 +20°C° 0.1 mm 1 mps 703 mmHg 58%
    19:00 +18°C° 0.2 mm 1 mps 703 mmHg 63%
    20:00 +16°C° 0.2 mm 1 mps 703 mmHg 67%
    21:00 +13°C° 0.2 mm 0 mps 703 mmHg 72%
    22:00 +14°C° 0.2 mm 1 mps 703 mmHg 73%
    23:00 +14°C° 0.2 mm 1 mps 703 mmHg 73%
    Show more